QPF
0.12 0.15 0.04 0.08 0.02 0.00 0.00 0.00 0.00 0.00 0.00 0.01 0.00 0.00 0.00 0.00 0.00 0.00 0.02 0.14 0.08 0.08
0.07 0.10 0.04 0.04 0.02 0.00 0.00 0.00 0.00 0.00 0.00 0.00 0.00 0.00 0.00 0.00 0.00 0.00 0.01 0.06 0.02 0.02
0.10 0.14 0.12 0.07 0.01 0.00 0.00 0.00 0.02 0.01 0.00 0.00 0.00 0.00 0.00 0.00 0.01 0.00 0.00 0.00 0.00 0.13
0.06 0.11 0.11 0.08 0.03 0.00 0.00 0.00 0.00 0.00 0.00 0.00 0.00 0.00 0.00 0.02 0.17 0.07 0.02 0.00 0.00 0.01
0.08 0.05 0.02 0.02 0.02 0.00 0.00 0.00 0.00 0.00 0.00 0.00 0.01 0.00 0.00 0.02 0.19 0.12 0.12 0.05 0.00 0.02
0.03 0.05 0.01 0.00 0.00 0.00 0.00 0.00 0.00 0.00 0.00 0.00 0.00 0.00 0.00 0.03 0.14 0.05 0.23 0.07 0.00 0.05
0.06 0.06 0.03 0.03 0.00 0.00 0.00 0.00 0.00 0.00 0.00 0.02 0.02 0.00 0.02 0.03 0.05 0.01 0.23 0.11 0.02 0.02
0.10 0.07 0.05 0.03 0.00 0.02 0.01 0.01 0.00 0.00 0.01 0.05 0.11 0.06 0.10 0.13 0.07 0.00 0.14 0.07 0.02 0.00
0.04 0.06 0.04 0.04 0.03 0.01 0.09 0.16 0.04 0.03 0.12 0.17 0.05 0.07 0.11 0.08 0.00 0.00 0.00 0.00 0.00 0.00
0.09 0.06 0.08 0.12 0.10 0.03 0.04 0.12 0.03 0.09 0.10 0.08 0.08 0.15 0.13 0.13 0.05 0.00 0.00 0.00 0.00 0.00
0.18 0.23 0.14 0.11 0.08 0.06 0.05 0.07 0.08 0.08 0.04 0.03 0.04 0.13 0.14 0.07 0.02 0.00 0.00 0.00 0.00 0.02
0.36 0.27 0.27 0.25 0.18 0.16 0.15 0.14 0.10 0.14 0.11 0.02 0.01 0.04 0.06 0.06 0.05 0.02 0.00 0.00 0.00 0.00
0.07 0.13 0.31 0.39 0.31 0.37 0.34 0.25 0.22 0.16 0.16 0.19 0.28 0.24 0.09 0.13 0.14 0.06 0.03 0.01 0.02 0.01
0.00 0.02 0.02 0.17 0.40 0.41 0.45 0.45 0.32 0.28 0.25 0.24 0.27 0.26 0.18 0.17 0.07 0.07 0.10 0.05 0.07 0.05
MSLP
1012.41 1012.95 1012.98 1013.04 1013.15 1013.30 1013.56 1013.65 1013.63 1013.92 1014.03 1014.19 1014.16 1014.49 1014.76 1015.01 1015.13 1015.18 1015.34 1015.41 1015.50 1015.72
1012.02 1012.32 1012.57 1012.66 1012.69 1012.79 1012.91 1013.12 1013.36 1013.59 1013.69 1013.93 1014.07 1014.21 1014.47 1014.70 1014.81 1014.90 1015.02 1015.03 1015.19 1015.31
1011.73 1011.78 1012.15 1012.37 1012.43 1012.38 1012.50 1012.70 1012.83 1013.05 1013.39 1013.55 1013.85 1013.95 1014.32 1014.53 1014.53 1014.61 1014.72 1014.78 1014.86 1015.04
1012.15 1011.84 1011.77 1011.86 1011.79 1011.82 1012.03 1012.24 1012.46 1012.56 1012.84 1013.10 1013.36 1013.48 1013.94 1014.07 1014.32 1014.39 1014.49 1014.60 1014.58 1014.62
1011.65 1011.19 1011.12 1011.23 1011.26 1011.40 1011.67 1011.84 1012.01 1012.08 1012.31 1012.52 1012.68 1012.98 1013.45 1013.68 1013.76 1014.02 1014.20 1014.37 1014.40 1014.34
1010.49 1010.37 1010.23 1010.24 1010.45 1010.88 1011.11 1011.29 1011.53 1011.77 1011.92 1012.06 1012.21 1012.59 1013.04 1013.32 1013.50 1013.52 1013.54 1013.88 1013.93 1013.92
1009.75 1009.51 1009.54 1009.56 1009.76 1010.24 1010.55 1010.68 1010.99 1011.24 1011.44 1011.57 1011.84 1012.15 1012.63 1012.93 1013.11 1013.14 1013.24 1013.40 1013.27 1013.32
1009.19 1008.86 1009.05 1009.01 1009.06 1009.43 1009.79 1010.04 1010.26 1010.62 1010.80 1011.23 1011.72 1012.04 1012.20 1012.46 1012.52 1012.74 1013.04 1012.91 1012.82 1012.78
1008.77 1008.50 1008.47 1008.34 1008.56 1008.70 1009.00 1009.42 1009.68 1010.06 1010.31 1010.79 1011.07 1011.27 1011.48 1011.69 1011.92 1012.14 1012.41 1012.59 1012.45 1012.52
1009.11 1008.70 1008.49 1008.40 1008.66 1008.40 1008.43 1008.65 1009.17 1009.47 1009.86 1010.00 1010.47 1010.61 1010.77 1010.97 1011.31 1011.61 1011.80 1011.95 1012.05 1012.14
1009.30 1009.30 1008.80 1008.79 1008.57 1008.34 1008.24 1008.13 1008.54 1008.77 1009.13 1009.56 1009.44 1009.68 1009.88 1010.30 1010.64 1010.80 1010.91 1011.13 1011.38 1011.78
1009.48 1008.97 1008.36 1008.25 1009.37 1009.33 1008.76 1008.33 1008.25 1008.15 1008.52 1008.77 1008.81 1008.93 1009.31 1009.82 1010.24 1010.36 1010.63 1010.68 1010.86 1011.18
1009.44 1009.08 1008.63 1008.20 1009.31 1009.91 1009.46 1008.51 1008.79 1009.36 1009.77 1009.23 1008.88 1009.05 1009.01 1009.42 1009.64 1010.00 1010.42 1010.65 1010.86 1011.08
1009.37 1009.48 1009.44 1009.41 1009.37 1008.37 1008.91 1009.72 1010.25 1010.50 1010.42 1010.18 1010.05 1009.37 1009.29 1009.36 1009.15 1009.12 1009.66 1010.35 1010.95 1011.27
Thickness
5768 5767 5768 5768 5768 5768 5767 5767 5772 5770 5772 5772 5773 5771 5771 5770 5770 5771 5769 5767 5765 5762
5769 5769 5767 5769 5771 5770 5771 5770 5770 5769 5770 5771 5772 5772 5771 5770 5770 5770 5769 5767 5766 5764
5766 5769 5767 5768 5769 5771 5771 5770 5772 5772 5770 5771 5770 5770 5769 5768 5770 5768 5767 5767 5766 5765
5757 5763 5767 5768 5771 5772 5772 5771 5772 5773 5772 5772 5770 5771 5767 5768 5767 5766 5764 5765 5764 5764
5761 5765 5768 5770 5772 5772 5771 5772 5772 5774 5772 5771 5773 5771 5765 5765 5767 5764 5762 5761 5762 5764
5767 5768 5772 5775 5774 5771 5771 5771 5771 5771 5770 5769 5772 5769 5766 5764 5763 5763 5764 5761 5761 5763
5774 5776 5777 5777 5776 5772 5770 5771 5770 5768 5768 5768 5768 5767 5763 5761 5760 5761 5762 5761 5763 5764
5778 5778 5776 5776 5778 5776 5772 5771 5772 5769 5770 5766 5764 5762 5761 5759 5760 5758 5757 5760 5762 5764
5777 5777 5776 5776 5777 5778 5774 5771 5769 5767 5766 5764 5763 5763 5762 5762 5760 5759 5756 5755 5759 5761
5766 5770 5769 5770 5770 5774 5774 5773 5768 5765 5764 5764 5762 5761 5761 5761 5759 5756 5756 5755 5757 5758
5755 5756 5762 5760 5760 5765 5769 5769 5767 5764 5761 5759 5762 5761 5759 5758 5757 5757 5758 5758 5757 5755
5745 5749 5757 5758 5744 5744 5750 5757 5760 5763 5758 5757 5757 5757 5754 5753 5753 5754 5752 5755 5756 5756
5736 5739 5745 5749 5737 5731 5737 5746 5743 5736 5727 5734 5741 5742 5747 5748 5750 5745 5746 5749 5749 5751
5729 5724 5723 5724 5719 5725 5703 5725 5714 5702 5709 5717 5724 5737 5738 5735 5743 5747 5747 5744 5741 5743